Location: Caltech
(34.1382°N, 118.1253°W)
Time: 13:50:18
(UTC-07:00)

Iridium 95 - Pass Details

Date: 06 May 2018
Orbit: 776 x 779 km, 86.4° (Epoch: 19 September)

Event Time Altitude Azimuth Distance (km) Brightness Sun altitude
Rises 20:10:47 0° 185° (S) 3,245 8.5 -6.6°
Reaches altitude 10° 20:13:08 10° 187° (S) 2,321 7.8 -7.0°
Maximum altitude 20:18:19 75° 272° (W) 808 5.8 -8.0°
Drops below altitude 10° 20:23:33 10° 358° (N) 2,334 8.4 -8.9°
Sets 20:25:54 0° 0° (N) 3,264 9.2 -9.4°
